SL-16 DEB

Satellite information

Favourite Embed

Satellite Type and Status

DEBRISIN ORBIT

Key statistics

Satellite SL-16 DEB at a glance.

Uptime

11990

Days in orbit

Revolutions

≈ 14.1

Per day

Orbit

LEO

Low Earth Orbit

Inclination

71.3

Latest

Satellite identification and parameters

Extended collection of information and parameters for SL-16 DEB.

Object identification

Identified? True

Debris? True

Object name: SL-16 DEB

International designator: 1992-093CK

Object number (NORAD): 22394

Object ID (CCSDS): 22394

Country: COMMONWEALTH OF INDEPENDENT STATES (CIS)

Current information (Y/N): Y

RCS size: MEDIUM

Orbital parameters

Period: 102.104 minutes

Inclination: 71.2784 deg

SMA: 7236.374 km

Apoapsis: 909.429 km

Periapsis: 807.05 km

RAAN: 51.7022 deg

Eccentricy: 0.00707392

Argument of periapsis: 56.6128 deg

Mean anomaly: 304.1736 deg

Mean motion: 14.10331535 rev/day

Mean motion (dot): 0.00001634 rev/day2

B* drag term: 0.00092356747 1/REarth

Two-line elements (TLE)

Creation date: Oct. 23, 2025, 2:46 a.m.

Reference frame: TEME

Reference center: EARTH

Epoch: Oct. 22, 2025, 12:33 p.m. UTC

TLE line 0: 0 SL-16 DEB

TLE line 1: 1 22394U 92093CK 25295.52330073 .00001634 00000-0 92357-3 0 9992

TLE line 2: 2 22394 71.2784 51.7022 0070739 56.6128 304.1736 14.10331535677642

Live tracking on map

Real-time ground track for satellite SL-16 DEB.

In-orbit conjunctions

A list of the most updated potential collisions computed for object SL-16 DEB.

Target Orbit TCA Probability of collision Miss distance Type
CZ-6A DEB LEO 2024-11-20 11:35:14 0.002733951 136.0 (m) DEBRIS
CZ-6A DEB LEO 2024-11-13 12:36:21 0.0001990152 595.0 (m) DEBRIS

Associated space launch

Second generation ELING satellite

SL-16 DEB was lifted into orbit during the mission ‘Zenit-2 | Tselina-2 12’, on board a Zenit-2 space rocket.

The launch took place on Dec. 25, 1992, 5:56 a.m. from 45/1.

For more information about the launch, click the button.

Launch to space Zenit-2 | Tselina-2 12
Zenit-2 | Tselina-2 12

Agency: N/A

Status: Launch Successful

Launch date: Dec. 25, 1992, 5:56 a.m. UTC

Rocket: Zenit-2

Launch pad: 45/1

Location: Baikonur Cosmodrome, Republic of Kazakhstan

...

Latest news about this satellite

There are no fresh news available about this satellite. Check back as we update our databases every day.


Newsletter sign-up

Weekly statistics, charts and insights to help you stay on top of the space industry.